CAPE
94 54 1 0 12 19 0 21 74 141 308 0 32 62 24 6 8 53 0 0 0 0 1 6 0 0 34 55 85 52 92 93 79 71 0 0 9 12 18 0 0 0 16 0
100 74 5 5 7 9 0 20 212 456 230 5 180 50 31 22 4 28 22 0 0 0 4 11 0 0 54 6 89 43 129 0 8 55 23 4 0 0 0 0 0 0 356 0
121 87 7 10 14 41 102 169 253 238 261 1 117 74 56 35 10 59 37 0 0 0 0 4 19 6 6 0 7 0 4 0 3 76 62 48 54 0 0 0 2 0 0 0
142 82 9 4 15 74 99 158 115 18 119 57 167 114 36 9 15 40 94 63 14 28 9 20 77 129 23 0 0 0 33 50 6 0 0 0 0 0 0 0 0 22 0 0
138 54 63 4 0 80 24 212 158 95 73 19 264 193 85 9 13 120 147 66 3 98 142 169 132 217 140 78 19 70 4 38 0 0 0 0 0 0 0 0 0 0 0 0
147 53 0 0 11 26 5 86 446 284 165 331 332 268 62 18 78 351 290 151 78 256 285 436 389 230 149 141 202 176 116 35 0 0 0 0 0 0 0 0 0 0 0 0
142 73 4 0 16 2 18 223 509 345 513 654 163 110 75 31 57 333 285 413 312 239 94 70 47 7 1 3 11 85 58 42 0 0 0 0 0 0 0 0 0 0 0 0
83 66 0 7 20 0 120 1199 940 560 863 440 190 131 82 44 212 441 427 192 217 142 176 151 20 19 0 0 0 0 0 0 0 0 0 0 0 0 0 0 0 0 0 0
61 18 0 11 7 1 54 302 841 672 807 660 1 42 62 220 439 451 5 26 0 0 311 368 125 38 0 12 0 0 0 0 0 0 0 0 0 0 0 0 0 0 0 0
3 0 4 4 1 1 67 234 835 773 448 302 194 92 184 77 350 494 58 2 2 0 584 1160 451 182 18 19 24 0 0 0 0 0 15 0 0 0 0 0 0 0 0 0
11 14 2 4 12 10 42 192 880 1014 745 367 415 137 139 317 353 573 184 108 56 109 409 981 413 628 17 0 0 0 0 7 0 5 5 0 0 0 0 0 0 0 0 0
0 2 0 0 4 36 37 216 719 835 885 436 335 199 130 224 503 509 189 317 304 350 407 652 570 321 0 166 13 0 0 6 0 0 1 0 0 0 0 0 0 0 0 0
0 0 1 1 2 11 24 303 753 836 720 355 488 360 57 31 215 241 405 478 357 340 477 419 410 497 140 9 86 1 0 0 0 0 0 0 0 0 0 0 0 0 0 0
0 0 0 6 9 33 42 397 378 906 663 499 202 50 18 0 35 103 264 370 77 92 217 478 0 140 1 100 19 0 0 0 0 0 0 0 0 0 0 0 0 0 0 0
0 0 0 4 32 40 77 117 93 212 815 166 176 29 0 0 6 24 14 81 34 69 184 55 254 2 3 0 0 0 0 0 0 0 0 0 1 0 0 0 0 0 0 0
4 1 0 0 37 43 310 804 43 70 429 446 299 2 0 0 0 6 26 103 142 222 21 4 0 0 27 76 5 0 0 0 0 0 1 2 1 0 0 0 0 0 0 0
29 34 31 16 45 78 312 140 72 40 49 200 58 61 2 13 97 39 5 18 18 125 18 13 5 0 1 1 16 0 0 0 2 0 0 0 0 0 0 0 0 0 0 0
71 51 15 16 39 36 67 10 6 9 3 101 36 38 41 46 39 38 20 32 37 29 23 29 32 20 4 28 0 0 0 0 0 0 0 0 0 0 0 0 0 0 0 0
48 32 21 139 179 331 26 20 2 0 20 30 1 27 39 35 40 40 35 47 34 31 28 37 15 0 0 0 0 0 0 0 0 0 0 0 0 0 0 0 0 0 0 0
55 117 183 346 29 12 10 15 123 54 0 0 0 0 3 20 34 34 27 17 26 0 0 0 24 0 0 0 0 0 0 0 0 0 0 0 0 0 0 0 0 0 0 0
208 168 10 22 9 5 0 0 26 14 0 0 0 0 0 0 29 29 5 0 0 0 0 0 0 0 0 0 0 0 0 0 0 0 0 0 0 0 0 0 0 0 0 0
88 72 0 12 0 3 0 0 0 0 0 0 0 0 0 0 0 0 0 0 0 0 0 35 0 0 0 0 0 0 0 0 0 0 0 0 0 0 0 0 0 0 0 0
12 17 8 32 12 0 13 0 0 0 0 0 0 0 0 0 0 0 0 0 0 0 0 0 0 0 0 0 0 0 0 0 0 0 0 0 0 0 0 0 0 0 0 0
0 0 0 1 0 0 0 0 0 0 0 0 0 0 0 0 0 0 0 0 0 0 0 0 0 0 0 0 0 0 0 0 0 0 0 0 0 0 0 0 0 0 0 0
0 0 0 0 0 0 0 0 0 0 0 0 0 0 0 0 0 0 0 0 0 0 0 0 0 0 0 0 0 0 0 0 0 0 0 0 0 0 0 0 0 0 0 0
0 0 0 0 0 0 0 0 1 0 0 0 0 0 0 0 0 0 0 0 0 0 0 0 0 0 0 0 0 0 0 0 0 0 0 0 0 0 0 0 0 0 0 0
0 0 0 0 0 0 0 0 0 0 0 0 0 0 0 0 0 0 0 0 0 0 0 0 0 0 0 0 0 0 0 0 0 0 0 0 0 0 0 0 0 0 0 0
CIN
-1 -5 -4 -0 -4 -21 -0 -2 -0 -23 -3 -0 -0 -132 -0 -2 -0 -26 -0 -0 -0 -0 -1 -10 -0 -0 -0 -31 -10 -1 -1 -0 -0 -0 -0 -2 -19 -19 -13 -0 -0 -0 -51 -0
-1 -1 -6 -0 -2 -8 -0 -1 -14 -12 -38 -0 -43 -96 -9 -0 -0 -0 -9 -0 -0 -0 -19 -23 -0 -0 -72 -30 -26 -1 -7 -0 -1 -0 -28 -9 -0 -0 -0 -0 -0 -0 -0 -16
-0 -1 -4 -0 -2 -0 -1 -2 -35 -35 -34 -0 -38 -30 -55 -0 -0 -3 -0 -0 -0 -0 -0 -30 -36 -17 -42 -0 -50 -0 -25 -0 -3 -0 -0 -3 -8 -0 -0 -0 -33 -0 -0 -0
-0 -0 -1 -1 -22 -0 -10 -4 -0 -0 -86 -103 -25 -20 -1 -0 -0 -6 -18 -0 -12 -35 -32 -40 -17 -2 -82 -0 -0 -0 -36 -10 -7 -0 -0 -0 -0 -0 -0 -0 -0 -9 -0 -0
-1 -0 -2 -34 -0 -1 -1 -31 -34 -0 -73 -0 -0 -4 -43 -0 -0 -2 -0 -0 -16 -1 -0 -2 -5 -0 -9 -14 -80 -22 -33 -6 -0 -0 -0 -0 -0 -0 -0 -0 -0 -0 -0 -0
-0 -0 -0 -0 -0 -0 -9 -0 -36 -3 -7 -1 -4 -0 -9 -0 -1 -18 -12 -1 -0 -0 -9 -17 -21 -10 -5 -3 -19 -21 -19 -15 -0 -0 -0 -0 -0 -0 -0 -0 -0 -0 -0 -0
-0 -0 -0 -0 -0 -1 -1 -0 -2 -2 -0 -0 -4 -0 -0 -0 -10 -2 -13 -1 -1 -43 -122 -86 -66 -80 -41 -31 -29 -29 -33 -27 -0 -0 -0 -0 -0 -0 -0 -0 -0 -0 -0 -0
-2 -0 -0 -0 -0 -0 -1 -0 -7 -9 -13 -0 -0 -0 -0 -4 -1 -0 -25 -29 -68 -125 -48 -46 -63 -88 -0 -0 -0 -0 -0 -0 -0 -0 -0 -0 -0 -0 -0 -0 -0 -0 -0 -0
-1 -0 -0 -0 -13 -14 -0 -0 -1 -45 -4 -0 -0 -0 -0 -1 -0 -37 -205 -167 -0 -0 -45 -37 -5 -11 -0 -24 -1 -0 -0 -0 -0 -0 -0 -0 -0 -0 -0 -0 -0 -0 -0 -0
-2 -0 -2 -11 -13 -1 -8 -16 -3 -69 -0 -14 -10 -19 -1 -8 -1 -2 -149 -129 -19 -0 -42 -9 -1 -0 -3 -5 -25 -0 -0 -0 -0 -0 -0 -0 -0 -0 -0 -0 -0 -0 -0 -0
-3 -0 -0 -1 -3 -10 -11 -36 -1 -10 -7 -33 -50 -6 -14 -0 -0 -14 -65 -82 -89 -83 -48 -9 -5 -11 -38 -0 -0 -0 -0 -18 -0 -4 -0 -0 -0 -0 -0 -0 -0 -0 -0 -0
-0 -0 -0 -0 -16 -3 -3 -16 -10 -41 -7 -67 -108 -189 -204 -107 -33 -1 -89 -10 -46 -45 -9 -23 -21 -54 -0 -22 -43 -0 -0 -0 -0 -0 -0 -0 -0 -0 -0 -0 -0 -0 -0 -0
-0 -0 -12 -2 -2 -5 -5 -17 -8 -38 -66 -70 -44 -51 -220 -61 -48 -163 -26 -56 -37 -54 -47 -59 -51 -41 -46 -14 -17 -9 -0 -0 -0 -0 -0 -0 -0 -0 -0 -0 -0 -0 -0 -0
-0 -0 -0 -8 -5 -20 -38 -4 -67 -41 -48 -25 -39 -157 -118 -0 -250 -193 -122 -101 -224 -168 -86 -97 -0 -106 -3 -32 -24 -0 -0 -0 -0 -0 -0 -0 -0 -0 -0 -0 -0 -0 -0 -0
-0 -0 -0 -11 -6 -4 -11 -39 -61 -68 -17 -56 -53 -83 -0 -0 -147 -201 -216 -157 -138 -117 -123 -109 -71 -30 -81 -0 -0 -0 -0 -0 -0 -0 -0 -0 -0 -0 -0 -0 -0 -0 -0 -0
-10 -6 -0 -0 -0 -20 -37 -3 -22 -44 -73 -21 -2 -2 -0 -0 -0 -175 -156 -114 -87 -68 -5 -7 -0 -0 -80 -42 -5 -0 -0 -0 -0 -0 -0 -0 -0 -0 -0 -0 -0 -0 -0 -0
-94 -86 -103 -35 -29 -39 -10 -12 -66 -28 -150 -42 -42 -38 -12 -2 -4 -6 -35 -109 -55 -88 -3 -4 -3 -0 -10 -7 -8 -0 -0 -0 -0 -0 -0 -0 -0 -0 -0 -0 -0 -0 -0 -0
-74 -99 -82 -12 -35 -59 -63 -15 -19 -5 -1 -32 -24 -23 -25 -8 -4 -3 -11 -7 -4 -6 -6 -16 -14 -11 -14 -3 -0 -0 -0 -0 -0 -0 -0 -0 -0 -0 -0 -0 -0 -0 -0 -0
-85 -100 -119 -40 -41 -14 -28 -13 -23 -0 -77 -49 -0 -36 -34 -18 -16 -18 -19 -5 -12 -9 -8 -11 -15 -0 -0 -0 -0 -0 -0 -0 -0 -0 -0 -0 -0 -0 -0 -0 -0 -0 -0 -0
-72 -36 -2 -11 -7 -20 -8 -4 -52 -81 -0 -0 -0 -0 -84 -60 -46 -20 -13 -21 -10 -0 -0 -0 -0 -0 -0 -0 -0 -0 -0 -0 -0 -0 -0 -0 -0 -0 -0 -0 -0 -0 -0 -0
-40 -47 -6 -1 -5 -2 -2 -0 -28 -94 -0 -0 -0 -0 -0 -0 -38 -28 -20 -0 -0 -0 -0 -0 -0 -0 -0 -0 -0 -0 -0 -0 -0 -0 -0 -0 -0 -0 -0 -0 -0 -0 -0 -0
-26 -25 -5 -6 -0 -14 -0 -0 -0 -0 -0 -0 -0 -0 -0 -0 -0 -0 -0 -0 -0 -0 -0 -0 -0 -0 -0 -0 -0 -0 -0 -0 -0 -0 -0 -0 -0 -0 -0 -0 -0 -0 -0 -0
-136 -10 -2 -68 -4 -0 -3 -0 -0 -0 -0 -0 -0 -0 -0 -0 -0 -0 -0 -0 -0 -0 -0 -0 -0 -0 -0 -0 -0 -0 -0 -0 -0 -0 -0 -0 -0 -0 -0 -0 -0 -0 -0 -0
-0 -1 -0 -2 -0 -0 -0 -0 -0 -0 -0 -0 -0 -0 -0 -0 -0 -0 -0 -0 -0 -0 -0 -0 -0 -0 -0 -0 -0 -0 -0 -0 -0 -0 -0 -0 -0 -0 -0 -0 -0 -0 -0 -0
-0 -0 -0 -0 -0 -0 -0 -0 -0 -0 -0 -0 -0 -0 -0 -0 -0 -0 -0 -0 -0 -0 -0 -0 -0 -0 -0 -0 -0 -0 -0 -0 -0 -0 -0 -0 -0 -0 -0 -0 -0 -0 -0 -0
-0 -0 -0 -0 -0 -0 -0 -0 -1 -0 -0 -0 -0 -0 -0 -0 -0 -0 -0 -0 -0 -0 -0 -0 -0 -0 -0 -0 -0 -0 -0 -0 -0 -0 -0 -0 -0 -0 -0 -0 -0 -0 -0 -0
-0 -0 -0 -0 -0 -0 -0 -0 -0 -0 -0 -0 -0 -0 -0 -0 -0 -0 -0 -0 -0 -0 -0 -0 -0 -0 -0 -0 -0 -0 -0 -0 -0 -0 -0 -0 -0 -0 -0 -0 -0 -0 -0 -0
Wind_Speed
nan nan nan nan nan nan nan nan nan 58 56 nan nan nan nan nan nan nan nan nan nan nan nan nan nan nan nan nan nan nan nan nan nan nan nan nan nan nan nan nan nan nan nan nan
68 nan nan nan nan nan nan nan 60 56 48 nan 42 nan nan nan nan nan nan nan nan nan nan nan nan nan nan nan nan nan 17 nan nan nan nan nan nan nan nan nan nan nan 17 nan
71 nan nan nan nan nan 52 59 59 59 50 nan 36 nan nan nan nan nan nan nan nan nan nan nan nan nan nan nan nan nan nan nan nan nan nan nan nan nan nan nan nan nan nan nan
74 nan nan nan nan nan nan 67 54 nan 47 nan 37 32 nan nan nan nan nan nan nan nan nan nan nan 13 nan nan nan nan nan nan nan nan nan nan nan nan nan nan nan nan nan nan
74 nan nan nan nan nan nan 58 56 nan nan nan 39 36 nan nan nan 26 25 nan nan nan 15 11 14 16 18 nan nan nan nan nan nan nan nan nan nan nan nan nan nan nan nan nan
64 nan nan nan nan nan nan nan 65 58 55 40 44 36 nan nan nan 40 40 18 nan 18 28 30 31 27 21 19 15 12 17 nan nan nan nan nan nan nan nan nan nan nan nan nan
66 nan nan nan nan nan nan 59 61 53 54 42 37 30 nan nan nan 32 35 27 24 30 nan nan nan nan nan nan nan nan nan nan nan nan nan nan nan nan nan nan nan nan nan nan
nan nan nan nan nan nan 64 66 67 55 52 35 34 30 nan nan 32 42 39 40 32 21 20 21 nan nan nan nan nan nan nan nan nan nan nan nan nan nan nan nan nan nan nan nan
nan nan nan nan nan nan nan 60 57 54 55 43 nan nan nan 43 45 42 nan nan nan nan 26 19 10 nan nan nan nan nan nan nan nan nan nan nan nan nan nan nan nan nan nan nan
nan nan nan nan nan nan nan 56 65 61 49 45 38 nan 36 nan 42 43 nan nan nan nan 26 19 13 10 nan nan nan nan nan nan nan nan nan nan nan nan nan nan nan nan nan nan
nan nan nan nan nan nan nan 45 52 52 56 55 45 46 35 47 39 42 41 38 nan 28 25 20 15 13 nan nan nan nan nan nan nan nan nan nan nan nan nan nan nan nan nan nan
nan nan nan nan nan nan nan 47 46 49 50 49 50 57 63 59 55 39 33 38 27 25 29 25 23 18 nan 16 nan nan nan nan nan nan nan nan nan nan nan nan nan nan nan nan
nan nan nan nan nan nan nan 45 44 43 47 46 43 50 nan nan 58 50 40 37 34 28 32 28 25 22 19 nan nan nan nan nan nan nan nan nan nan nan nan nan nan nan nan nan
nan nan nan nan nan nan nan 43 43 47 50 48 45 nan nan nan nan 45 46 40 nan nan 33 32 nan 27 nan 24 nan nan nan nan nan nan nan nan nan nan nan nan nan nan nan nan
nan nan nan nan nan nan nan 40 nan 44 48 45 40 nan nan nan nan nan nan nan nan nan 36 nan 31 nan nan nan nan nan nan nan nan nan nan nan nan nan nan nan nan nan nan nan
nan nan nan nan nan nan 33 31 nan nan 43 36 39 nan nan nan nan nan nan 42 41 39 nan nan nan nan nan nan nan nan nan nan nan nan nan nan nan nan nan nan nan nan nan nan
nan nan nan nan nan nan 35 32 nan nan nan 33 nan nan nan nan nan nan nan nan nan 39 nan nan nan nan nan nan nan nan nan nan nan nan nan nan nan nan nan nan nan nan nan nan
nan nan nan nan nan nan nan nan nan nan nan 31 nan nan nan nan nan nan nan nan nan nan nan nan nan nan nan nan nan nan nan nan nan nan nan nan nan nan nan nan nan nan nan nan
nan nan nan 39 44 34 nan nan nan nan nan nan nan nan nan nan nan nan nan nan nan nan nan nan nan nan nan nan nan nan nan nan nan nan nan nan nan nan nan nan nan nan nan nan
nan 30 35 39 nan nan nan nan 21 nan nan nan nan nan nan nan nan nan nan nan nan nan nan nan nan nan nan nan nan nan nan nan nan nan nan nan nan nan nan nan nan nan nan nan
37 36 nan nan nan nan nan nan nan nan nan nan nan nan nan nan nan nan nan nan nan nan nan nan nan nan nan nan nan nan nan nan nan nan nan nan nan nan nan nan nan nan nan nan
nan nan nan nan nan nan nan nan nan nan nan nan nan nan nan nan nan nan nan nan nan nan nan nan nan nan nan nan nan nan nan nan nan nan nan nan nan nan nan nan nan nan nan nan
nan nan nan nan nan nan nan nan nan nan nan nan nan nan nan nan nan nan nan nan nan nan nan nan nan nan nan nan nan nan nan nan nan nan nan nan nan nan nan nan nan nan nan nan
nan nan nan nan nan nan nan nan nan nan nan nan nan nan nan nan nan nan nan nan nan nan nan nan nan nan nan nan nan nan nan nan nan nan nan nan nan nan nan nan nan nan nan nan
nan nan nan nan nan nan nan nan nan nan nan nan nan nan nan nan nan nan nan nan nan nan nan nan nan nan nan nan nan nan nan nan nan nan nan nan nan nan nan nan nan nan nan nan
nan nan nan nan nan nan nan nan nan nan nan nan nan nan nan nan nan nan nan nan nan nan nan nan nan nan nan nan nan nan nan nan nan nan nan nan nan nan nan nan nan nan nan nan
nan nan nan nan nan nan nan nan nan nan nan nan nan nan nan nan nan nan nan nan nan nan nan nan nan nan nan nan nan nan nan nan nan nan nan nan nan nan nan nan nan nan nan nan
Wind_Direction
nan nan nan nan nan nan nan nan nan 231 235 nan nan nan nan nan nan nan nan nan nan nan nan nan nan nan nan nan nan nan nan nan nan nan nan nan nan nan nan nan nan nan nan nan
231 nan nan nan nan nan nan nan 221 218 223 nan 235 nan nan nan nan nan nan nan nan nan nan nan nan nan nan nan nan nan 254 nan nan nan nan nan nan nan nan nan nan nan 239 nan
228 nan nan nan nan nan 221 218 222 216 224 nan 233 nan nan nan nan nan nan nan nan nan nan nan nan nan nan nan nan nan nan nan nan nan nan nan nan nan nan nan nan nan nan nan
222 nan nan nan nan nan nan 209 221 nan 236 nan 225 225 nan nan nan nan nan nan nan nan nan nan nan 254 nan nan nan nan nan nan nan nan nan nan nan nan nan nan nan nan nan nan
218 nan nan nan nan nan nan 208 216 nan nan nan 222 213 nan nan nan 204 190 nan nan nan 226 236 258 269 269 nan nan nan nan nan nan nan nan nan nan nan nan nan nan nan nan nan
205 nan nan nan nan nan nan nan 202 219 219 211 216 211 nan nan nan 196 181 175 nan 205 216 225 229 243 243 250 261 262 252 nan nan nan nan nan nan nan nan nan nan nan nan nan
177 nan nan nan nan nan nan 201 205 212 216 213 209 199 nan nan nan 197 194 183 204 213 nan nan nan nan nan nan nan nan nan nan nan nan nan nan nan nan nan nan nan nan nan nan
nan nan nan nan nan nan 191 199 202 205 204 202 202 205 nan nan 194 213 212 196 202 231 224 230 nan nan nan nan nan nan nan nan nan nan nan nan nan nan nan nan nan nan nan nan
nan nan nan nan nan nan nan 185 182 187 204 193 nan nan nan 206 206 200 nan nan nan nan 212 219 232 nan nan nan nan nan nan nan nan nan nan nan nan nan nan nan nan nan nan nan
nan nan nan nan nan nan nan 185 184 187 198 202 203 nan 209 nan 205 202 nan nan nan nan 212 218 226 243 nan nan nan nan nan nan nan nan nan nan nan nan nan nan nan nan nan nan
nan nan nan nan nan nan nan 177 184 181 200 205 196 196 199 204 198 201 206 199 nan 205 216 223 229 235 nan nan nan nan nan nan nan nan nan nan nan nan nan nan nan nan nan nan
nan nan nan nan nan nan nan 177 184 185 193 204 209 201 203 196 196 199 200 195 218 217 224 220 230 237 nan 241 nan nan nan nan nan nan nan nan nan nan nan nan nan nan nan nan
nan nan nan nan nan nan nan 173 176 188 195 203 203 205 nan nan 199 197 204 202 215 222 215 236 236 246 259 nan nan nan nan nan nan nan nan nan nan nan nan nan nan nan nan nan
nan nan nan nan nan nan nan 174 180 189 198 206 205 nan nan nan nan 204 203 221 nan nan 232 235 nan 248 nan 262 nan nan nan nan nan nan nan nan nan nan nan nan nan nan nan nan
nan nan nan nan nan nan nan 182 nan 188 191 201 208 nan nan nan nan nan nan nan nan nan 237 nan 248 nan nan nan nan nan nan nan nan nan nan nan nan nan nan nan nan nan nan nan
nan nan nan nan nan nan 173 177 nan nan 188 206 208 nan nan nan nan nan nan 227 230 235 nan nan nan nan nan nan nan nan nan nan nan nan nan nan nan nan nan nan nan nan nan nan
nan nan nan nan nan nan 169 176 nan nan nan 199 nan nan nan nan nan nan nan nan nan 235 nan nan nan nan nan nan nan nan nan nan nan nan nan nan nan nan nan nan nan nan nan nan
nan nan nan nan nan nan nan nan nan nan nan 188 nan nan nan nan nan nan nan nan nan nan nan nan nan nan nan nan nan nan nan nan nan nan nan nan nan nan nan nan nan nan nan nan
nan nan nan 182 175 179 nan nan nan nan nan nan nan nan nan nan nan nan nan nan nan nan nan nan nan nan nan nan nan nan nan nan nan nan nan nan nan nan nan nan nan nan nan nan
nan 187 175 175 nan nan nan nan 184 nan nan nan nan nan nan nan nan nan nan nan nan nan nan nan nan nan nan nan nan nan nan nan nan nan nan nan nan nan nan nan nan nan nan nan
174 175 nan nan nan nan nan nan nan nan nan nan nan nan nan nan nan nan nan nan nan nan nan nan nan nan nan nan nan nan nan nan nan nan nan nan nan nan nan nan nan nan nan nan
nan nan nan nan nan nan nan nan nan nan nan nan nan nan nan nan nan nan nan nan nan nan nan nan nan nan nan nan nan nan nan nan nan nan nan nan nan nan nan nan nan nan nan nan
nan nan nan nan nan nan nan nan nan nan nan nan nan nan nan nan nan nan nan nan nan nan nan nan nan nan nan nan nan nan nan nan nan nan nan nan nan nan nan nan nan nan nan nan
nan nan nan nan nan nan nan nan nan nan nan nan nan nan nan nan nan nan nan nan nan nan nan nan nan nan nan nan nan nan nan nan nan nan nan nan nan nan nan nan nan nan nan nan
nan nan nan nan nan nan nan nan nan nan nan nan nan nan nan nan nan nan nan nan nan nan nan nan nan nan nan nan nan nan nan nan nan nan nan nan nan nan nan nan nan nan nan nan
nan nan nan nan nan nan nan nan nan nan nan nan nan nan nan nan nan nan nan nan nan nan nan nan nan nan nan nan nan nan nan nan nan nan nan nan nan nan nan nan nan nan nan nan
nan nan nan nan nan nan nan nan nan nan nan nan nan nan nan nan nan nan nan nan nan nan nan nan nan nan nan nan nan nan nan nan nan nan nan nan nan nan nan nan nan nan nan nan